Regional Weather Roundup
Issued by NWS Shreveport, LA

Home | Current Version | Previous Version | Text Only | Print | Product List | Glossary On
Versions: 1 2 3 4 5 6 7 8 9 10 11 12 13 14 15 16 17 18 19 20 21 22 23 24 25 26 27 28
000
ASUS44 KSHV 310510
RWRSHV

THE FOUR STATE AREA WEATHER ROUNDUP
NATIONAL WEATHER SERVICE SHREVEPORT LA
1200 AM CDT SAT JUL 31 2021

NOTE:  "FAIR" INDICATES FEW OR NO CLOUDS BELOW 12000 FEET
WITH NO SIGNIFICANT WEATHER AND/OR OBSTRUCTIONS TO VISIBILITY.

!LAZ001-LAZ014-TXZ097-310600
SHREVEPORT...MONROE...TEXARKANA RADIOS

CITY           SKY/WX    TMP DP  RH WIND       PRES   REMARKS
SHREVEPORT     CLEAR     84  76  76 CALM      30.03S
MONROE         CLEAR     81  78  91 CALM      30.04R
NATCHITOCHES   CLEAR     80  79  97 CALM      30.03F
TEXARKANA      CLEAR     86  75  69 CALM      30.04S
$$

!LAZ001-LAZ014-TXZ097-310600
OTHER LOCATIONS...

CITY           SKY/WX    TMP DP  RH WIND       PRES   REMARKS
DOWNTOWN SHV   CLEAR     86  77  74 CALM      30.03R
BOSSIER CITY   CLEAR     81  76  84 CALM      30.02S
RUSTON         NOT AVBL
LITTLE ROCK    CLEAR     83  75  77 SW3       30.01F
EL DORADO      CLEAR     78  77  96 CALM      30.04R
JACKSON        CLEAR     77  73  87 CALM      30.05S
NEW ORLEANS    PTCLDY    84  79  85 CALM      30.04S
HOUSTON        MOCLDY    80  74  81 S3        30.04F
LUFKIN         CLEAR     82  78  88 S3        30.04S
TYLER          CLEAR     83  74  74 CALM      30.04S
DAL FT WORTH   PTCLDY    87  74  64 S9        30.02S
$$


!TXZ136-TXZ165-310600
TYLER...LUFKIN RADIOS

CITY           SKY/WX    TMP DP  RH WIND       PRES   REMARKS
TYLER          CLEAR     83  74  74 CALM      30.04S
GILMER         CLEAR     79  77  93 CALM      30.04F
LONGVIEW       CLEAR     79  75  87 CALM      30.03S
LUFKIN         CLEAR     82  78  88 S3        30.04S
$$

!TXZ136-TXZ165-310600
OTHER LOCATIONS...

CITY           SKY/WX    TMP DP  RH WIND       PRES   REMARKS
NACOGDOCHES    CLEAR     78  76  93 CALM      30.05S
BEAUMONT       CLEAR     78  78 100 MISG      30.04R
HOUSTON        MOCLDY    80  74  81 S3        30.04F
COLLEGE STN    PTCLDY    81  73  76 S5        30.05R
AUSTIN         PTCLDY    79  73  82 S5        30.05R
DAL FT WORTH   PTCLDY    87  74  64 S9        30.02S
TEXARKANA      CLEAR     86  75  69 CALM      30.04S
SHREVEPORT     CLEAR     84  76  76 CALM      30.03S
FORT POLK      CLEAR     82  78  90 SW3       30.04S
LAKE CHARLES   CLEAR     82  79  90 SW3       30.04F
$$



USA.gov is the U.S. government's official web portal to all federal, state and local government web resources and services.